Time,TemperatureF,DewpointF,PressureIn,WindDirection,WindDirectionDegrees,WindSpeedMPH,WindSpeedGustMPH,Humidity,HourlyPrecipIn,Conditions,Clouds,dailyrainin,SoftwareType,DateUTC
2013-05-11 00:03:00,74.0,60.0,29.83,South,171,5.0,16.0,62,0.00,,,0.00,,2013-05-11 04:03:00,
2013-05-11 00:12:00,74.0,60.0,29.83,South,171,5.0,16.0,62,0.00,,,0.00,,2013-05-11 04:12:00,
2013-05-11 00:23:00,74.0,60.0,29.83,SW,223,6.0,19.0,61,0.00,,,0.00,,2013-05-11 04:23:00,
2013-05-11 00:33:00,74.0,60.0,29.83,SW,216,0.0,16.0,62,0.00,,,0.00,,2013-05-11 04:33:00,
2013-05-11 00:43:00,71.0,61.0,29.86,WNW,284,0.0,16.0,71,0.00,,,0.00,,2013-05-11 04:43:00,
2013-05-11 00:52:00,71.0,61.0,29.86,WNW,284,0.0,16.0,71,0.00,,,0.00,,2013-05-11 04:52:00,
2013-05-11 01:02:00,70.0,61.0,29.86,NNW,342,0.0,0.0,73,0.00,,,0.00,,2013-05-11 05:02:00,
2013-05-11 01:12:00,70.0,61.0,29.86,NNW,342,0.0,0.0,73,0.00,,,0.00,,2013-05-11 05:12:00,
2013-05-11 01:22:00,70.0,62.0,29.88,North,7,0.0,0.0,75,0.04,,,0.04,,2013-05-11 05:22:00,
2013-05-11 01:32:00,68.0,63.0,29.86,North,10,0.0,0.0,84,0.08,,,0.08,,2013-05-11 05:32:00,
2013-05-11 01:42:00,67.0,63.0,29.87,North,10,0.0,0.0,88,0.13,,,0.13,,2013-05-11 05:42:00,
2013-05-11 01:52:00,67.0,63.0,29.87,North,10,0.0,0.0,88,0.13,,,0.13,,2013-05-11 05:52:00,
2013-05-11 02:02:00,66.0,63.0,29.85,North,10,0.0,0.0,89,0.13,,,0.13,,2013-05-11 06:02:00,
2013-05-11 02:12:00,66.0,63.0,29.85,North,10,0.0,0.0,89,0.13,,,0.13,,2013-05-11 06:12:00,
2013-05-11 02:21:00,66.0,63.0,29.85,North,10,0.0,0.0,90,0.09,,,0.13,,2013-05-11 06:21:00,
2013-05-11 02:32:00,66.0,63.0,29.87,North,10,0.0,0.0,91,0.05,,,0.13,,2013-05-11 06:32:00,
2013-05-11 02:42:00,65.0,63.0,29.84,NNE,24,0.0,0.0,92,0.00,,,0.13,,2013-05-11 06:42:00,
2013-05-11 02:52:00,65.0,63.0,29.84,NNE,24,0.0,0.0,92,0.00,,,0.13,,2013-05-11 06:52:00,
2013-05-11 03:02:00,65.0,63.0,29.83,NNE,24,0.0,0.0,92,0.00,,,0.13,,2013-05-11 07:02:00,
2013-05-11 03:12:00,65.0,63.0,29.83,NNE,24,0.0,0.0,92,0.00,,,0.13,,2013-05-11 07:12:00,
2013-05-11 03:21:00,65.0,63.0,29.84,NNE,24,0.0,0.0,93,0.00,,,0.13,,2013-05-11 07:21:00,
2013-05-11 03:32:00,64.0,62.0,29.84,ESE,121,0.0,0.0,93,0.00,,,0.13,,2013-05-11 07:32:00,
2013-05-11 03:42:00,64.0,62.0,29.84,ESE,121,0.0,0.0,93,0.00,,,0.13,,2013-05-11 07:42:00,
2013-05-11 03:52:00,64.0,62.0,29.84,ESE,121,0.0,0.0,93,0.00,,,0.13,,2013-05-11 07:52:00,
2013-05-11 04:02:00,64.0,62.0,29.83,ESE,123,0.0,0.0,93,0.00,,,0.13,,2013-05-11 08:02:00,
2013-05-11 04:12:00,64.0,62.0,29.83,ESE,123,0.0,0.0,93,0.00,,,0.13,,2013-05-11 08:12:00,
2013-05-11 04:21:00,64.0,62.0,29.82,ESE,123,0.0,0.0,94,0.01,,,0.14,,2013-05-11 08:21:00,
2013-05-11 04:32:00,64.0,62.0,29.81,SSE,148,0.0,6.0,94,0.01,,,0.14,,2013-05-11 08:32:00,
2013-05-11 04:42:00,64.0,62.0,29.80,SE,145,0.0,5.0,94,0.01,,,0.14,,2013-05-11 08:42:00,
2013-05-11 04:52:00,64.0,62.0,29.80,SE,145,0.0,5.0,94,0.01,,,0.14,,2013-05-11 08:52:00,
2013-05-11 05:01:00,64.0,62.0,29.79,SE,128,3.0,7.0,94,0.01,,,0.14,,2013-05-11 09:01:00,
2013-05-11 05:11:00,64.0,62.0,29.79,SE,128,3.0,7.0,94,0.01,,,0.14,,2013-05-11 09:11:00,
2013-05-11 05:21:00,64.0,62.0,29.78,SE,140,0.0,3.0,94,0.00,,,0.14,,2013-05-11 09:21:00,
2013-05-11 05:32:00,64.0,62.0,29.78,SSE,154,0.0,0.0,94,0.00,,,0.14,,2013-05-11 09:32:00,
2013-05-11 05:42:00,64.0,62.0,29.78,SSE,158,0.0,6.0,94,0.00,,,0.14,,2013-05-11 09:42:00,
2013-05-11 05:53:00,64.0,62.0,29.78,SSE,158,0.0,6.0,94,0.00,,,0.14,,2013-05-11 09:53:00,
2013-05-11 06:03:00,64.0,62.0,29.79,South,176,0.0,0.0,94,0.00,,,0.14,,2013-05-11 10:03:00,
2013-05-11 06:12:00,64.0,62.0,29.79,South,176,0.0,0.0,94,0.00,,,0.14,,2013-05-11 10:12:00,
2013-05-11 06:22:00,64.0,62.0,29.79,South,176,0.0,0.0,94,0.00,,,0.14,,2013-05-11 10:22:00,
2013-05-11 06:33:00,64.0,62.0,29.80,SSW,192,3.0,6.0,94,0.00,,,0.14,,2013-05-11 10:33:00,
2013-05-11 06:42:00,65.0,63.0,29.80,South,191,3.0,10.0,94,0.00,,,0.14,,2013-05-11 10:42:00,
2013-05-11 06:52:00,65.0,63.0,29.80,South,191,3.0,10.0,94,0.00,,,0.14,,2013-05-11 10:52:00,
2013-05-11 07:02:00,65.0,63.0,29.79,SSE,165,0.0,0.0,93,0.00,,,0.14,,2013-05-11 11:02:00,
2013-05-11 07:12:00,65.0,63.0,29.79,SSE,165,0.0,0.0,93,0.00,,,0.14,,2013-05-11 11:12:00,
2013-05-11 07:22:00,65.0,63.0,29.79,SSE,165,0.0,0.0,93,0.00,,,0.14,,2013-05-11 11:22:00,
2013-05-11 07:32:00,66.0,64.0,29.79,SSE,151,0.0,8.0,93,0.00,,,0.14,,2013-05-11 11:32:00,
2013-05-11 07:42:00,66.0,64.0,29.78,SSW,210,5.0,7.0,93,0.00,,,0.14,,2013-05-11 11:42:00,
2013-05-11 07:51:00,66.0,64.0,29.78,SSW,210,5.0,7.0,93,0.00,,,0.14,,2013-05-11 11:51:00,
2013-05-11 08:01:00,66.0,64.0,29.80,SSW,202,0.0,7.0,92,0.00,,,0.14,,2013-05-11 12:01:00,
2013-05-11 08:11:00,66.0,64.0,29.80,SSW,202,0.0,7.0,92,0.00,,,0.14,,2013-05-11 12:11:00,
2013-05-11 08:22:00,66.0,63.0,29.80,South,181,0.0,0.0,91,0.00,,,0.14,,2013-05-11 12:22:00,
2013-05-11 08:32:00,66.0,63.0,29.80,South,181,0.0,0.0,91,0.00,,,0.14,,2013-05-11 12:32:00,
2013-05-11 08:42:00,67.0,64.0,29.79,SSE,151,1.0,6.0,90,0.00,,,0.14,,2013-05-11 12:42:00,
2013-05-11 08:51:00,67.0,64.0,29.79,SSE,151,1.0,6.0,90,0.00,,,0.14,,2013-05-11 12:51:00,
2013-05-11 09:02:00,68.0,65.0,29.78,SSE,155,0.0,0.0,89,0.00,,,0.14,,2013-05-11 13:02:00,
2013-05-11 09:11:00,68.0,65.0,29.78,SSE,155,0.0,0.0,89,0.00,,,0.14,,2013-05-11 13:11:00,
2013-05-11 09:21:00,68.0,64.0,29.79,SSW,198,5.0,11.0,88,0.00,,,0.14,,2013-05-11 13:21:00,
2013-05-11 09:32:00,68.0,64.0,29.79,SSW,198,5.0,11.0,88,0.00,,,0.14,,2013-05-11 13:32:00,
2013-05-11 09:42:00,68.0,63.0,29.80,SSW,209,5.0,13.0,85,0.00,,,0.14,,2013-05-11 13:42:00,
2013-05-11 09:52:00,68.0,63.0,29.80,SSW,209,5.0,13.0,85,0.00,,,0.14,,2013-05-11 13:52:00,
2013-05-11 10:02:00,67.0,62.0,29.79,SSW,206,8.0,14.0,85,0.00,,,0.14,,2013-05-11 14:02:00,
2013-05-11 10:11:00,67.0,62.0,29.79,SSW,206,8.0,14.0,85,0.00,,,0.14,,2013-05-11 14:11:00,
2013-05-11 10:21:00,67.0,63.0,29.78,SSW,209,5.0,11.0,86,0.00,,,0.14,,2013-05-11 14:21:00,
2013-05-11 10:32:00,68.0,63.0,29.77,SSW,202,6.0,11.0,85,0.00,,,0.14,,2013-05-11 14:32:00,
2013-05-11 10:42:00,70.0,65.0,29.78,SE,137,0.0,11.0,83,0.00,,,0.14,,2013-05-11 14:42:00,
2013-05-11 10:51:00,70.0,65.0,29.78,SE,137,0.0,11.0,83,0.00,,,0.14,,2013-05-11 14:51:00,
2013-05-11 11:01:00,70.0,65.0,29.78,SE,137,0.0,11.0,83,0.00,,,0.14,,2013-05-11 15:01:00,
2013-05-11 11:11:00,70.0,63.0,29.78,South,179,8.0,16.0,79,0.00,,,0.14,,2013-05-11 15:11:00,
2013-05-11 11:21:00,70.0,63.0,29.78,South,179,8.0,16.0,79,0.00,,,0.14,,2013-05-11 15:21:00,
2013-05-11 11:32:00,73.0,65.0,29.76,SSW,209,5.0,14.0,76,0.00,,,0.14,,2013-05-11 15:32:00,
2013-05-11 11:43:00,75.0,66.0,29.76,South,189,0.0,17.0,73,0.00,,,0.14,,2013-05-11 15:43:00,
2013-05-11 11:53:00,75.0,66.0,29.76,South,189,0.0,17.0,73,0.00,,,0.14,,2013-05-11 15:53:00,
2013-05-11 12:03:00,75.0,66.0,29.76,South,189,0.0,17.0,73,0.00,,,0.14,,2013-05-11 16:03:00,
2013-05-11 12:12:00,75.0,66.0,29.76,South,189,0.0,17.0,73,0.00,,,0.14,,2013-05-11 16:12:00,
2013-05-11 12:23:00,75.0,65.0,29.75,SSW,196,5.0,11.0,72,0.00,,,0.14,,2013-05-11 16:23:00,
2013-05-11 12:33:00,76.0,65.0,29.74,SSW,198,9.0,12.0,70,0.00,,,0.14,,2013-05-11 16:33:00,
2013-05-11 12:42:00,76.0,66.0,29.74,SSW,199,7.0,12.0,71,0.00,,,0.14,,2013-05-11 16:42:00,
2013-05-11 12:53:00,76.0,66.0,29.74,SSW,199,7.0,12.0,71,0.00,,,0.14,,2013-05-11 16:53:00,
2013-05-11 13:02:00,76.0,65.0,29.74,SSW,210,8.0,17.0,68,0.00,,,0.14,,2013-05-11 17:02:00,
2013-05-11 13:12:00,76.0,65.0,29.74,SSW,210,8.0,17.0,68,0.00,,,0.14,,2013-05-11 17:12:00,
2013-05-11 13:22:00,76.0,65.0,29.74,SSW,210,8.0,17.0,68,0.00,,,0.14,,2013-05-11 17:22:00,
2013-05-11 13:32:00,77.0,66.0,29.73,West,261,0.0,20.0,69,0.00,,,0.14,,2013-05-11 17:32:00,
2013-05-11 13:42:00,77.0,66.0,29.73,SSW,203,2.0,12.0,68,0.00,,,0.14,,2013-05-11 17:42:00,
2013-05-11 13:52:00,77.0,66.0,29.73,SSW,203,2.0,12.0,68,0.00,,,0.14,,2013-05-11 17:52:00,
2013-05-11 14:01:00,77.0,66.0,29.73,SSW,203,2.0,12.0,68,0.00,,,0.14,,2013-05-11 18:01:00,
2013-05-11 14:12:00,77.0,66.0,29.73,SSW,203,2.0,12.0,68,0.00,,,0.14,,2013-05-11 18:12:00,
2013-05-11 14:21:00,78.0,65.0,29.71,SSW,209,3.0,12.0,65,0.00,,,0.14,,2013-05-11 18:21:00,
2013-05-11 14:32:00,78.0,65.0,29.71,SSW,209,3.0,12.0,65,0.00,,,0.14,,2013-05-11 18:32:00,
2013-05-11 14:42:00,77.0,65.0,29.71,SSW,203,0.0,17.0,66,0.00,,,0.14,,2013-05-11 18:42:00,
2013-05-11 14:52:00,77.0,65.0,29.71,SSW,203,0.0,17.0,66,0.00,,,0.14,,2013-05-11 18:52:00,
2013-05-11 15:02:00,77.0,64.0,29.70,SSW,210,5.0,12.0,65,0.00,,,0.14,,2013-05-11 19:02:00,
2013-05-11 15:11:00,77.0,64.0,29.70,SSW,210,5.0,12.0,65,0.00,,,0.14,,2013-05-11 19:11:00,
2013-05-11 15:21:00,79.0,66.0,29.69,SSW,199,0.0,8.0,64,0.00,,,0.14,,2013-05-11 19:21:00,
2013-05-11 15:32:00,79.0,64.0,29.69,SW,216,5.0,14.0,60,0.00,,,0.14,,2013-05-11 19:32:00,
2013-05-11 15:42:00,79.0,64.0,29.68,SSW,213,1.0,12.0,61,0.00,,,0.14,,2013-05-11 19:42:00,
2013-05-11 15:52:00,79.0,64.0,29.68,SSW,213,1.0,12.0,61,0.00,,,0.14,,2013-05-11 19:52:00,
2013-05-11 16:02:00,79.0,64.0,29.68,SSW,213,1.0,12.0,61,0.00,,,0.14,,2013-05-11 20:02:00,
2013-05-11 16:12:00,79.0,64.0,29.68,SSW,213,1.0,12.0,61,0.00,,,0.14,,2013-05-11 20:12:00,
2013-05-11 16:22:00,78.0,64.0,29.68,SSW,199,3.0,11.0,63,0.00,,,0.14,,2013-05-11 20:22:00,
2013-05-11 16:32:00,76.0,67.0,29.68,SSW,192,0.0,10.0,73,0.01,,,0.15,,2013-05-11 20:32:00,
2013-05-11 16:42:00,75.0,66.0,29.67,SSW,206,0.0,0.0,74,0.01,,,0.15,,2013-05-11 20:42:00,
2013-05-11 16:52:00,75.0,66.0,29.67,SSW,206,0.0,0.0,74,0.01,,,0.15,,2013-05-11 20:52:00,
2013-05-11 17:02:00,77.0,66.0,29.67,SW,215,7.0,7.0,68,0.01,,,0.15,,2013-05-11 21:02:00,
2013-05-11 17:11:00,77.0,66.0,29.67,SW,215,7.0,7.0,68,0.01,,,0.15,,2013-05-11 21:11:00,
2013-05-11 17:21:00,77.0,64.0,29.67,SW,220,0.0,6.0,65,0.01,,,0.15,,2013-05-11 21:21:00,
2013-05-11 17:33:00,77.0,64.0,29.67,SW,220,0.0,6.0,65,0.01,,,0.15,,2013-05-11 21:33:00,
2013-05-11 17:43:00,77.0,64.0,29.67,SW,220,0.0,6.0,65,0.01,,,0.15,,2013-05-11 21:43:00,
2013-05-11 17:52:00,77.0,64.0,29.68,SW,230,0.0,0.0,65,0.00,,,0.15,,2013-05-11 21:52:00,
2013-05-11 18:02:00,77.0,63.0,29.67,SSW,209,1.0,7.0,62,0.00,,,0.15,,2013-05-11 22:02:00,
2013-05-11 18:13:00,77.0,63.0,29.67,SSW,209,1.0,7.0,62,0.00,,,0.15,,2013-05-11 22:13:00,
2013-05-11 18:23:00,78.0,63.0,29.66,SSW,210,4.0,7.0,60,0.00,,,0.15,,2013-05-11 22:23:00,
2013-05-11 18:33:00,78.0,62.0,29.66,SW,234,0.0,10.0,59,0.00,,,0.15,,2013-05-11 22:33:00,
2013-05-11 18:42:00,78.0,62.0,29.66,SW,234,0.0,10.0,59,0.00,,,0.15,,2013-05-11 22:42:00,
2013-05-11 18:52:00,79.0,63.0,29.66,SSW,213,0.0,8.0,59,0.00,,,0.15,,2013-05-11 22:52:00,
2013-05-11 19:02:00,78.0,63.0,29.65,SSW,206,6.0,10.0,60,0.00,,,0.15,,2013-05-11 23:02:00,
2013-05-11 19:12:00,78.0,63.0,29.65,SSW,206,6.0,10.0,60,0.00,,,0.15,,2013-05-11 23:12:00,
2013-05-11 19:22:00,77.0,63.0,29.66,SSW,206,0.0,14.0,61,0.00,,,0.15,,2013-05-11 23:22:00,
2013-05-11 19:32:00,77.0,63.0,29.67,SSW,206,0.0,6.0,63,0.00,,,0.15,,2013-05-11 23:32:00,
2013-05-11 19:42:00,76.0,63.0,29.67,SW,216,0.0,6.0,64,0.00,,,0.15,,2013-05-11 23:42:00,
2013-05-11 19:52:00,76.0,63.0,29.67,SW,216,0.0,6.0,64,0.00,,,0.15,,2013-05-11 23:52:00,
2013-05-11 20:01:00,75.0,65.0,29.67,SW,216,0.0,0.0,71,0.00,,,0.15,,2013-05-12 00:01:00,
2013-05-11 20:12:00,75.0,65.0,29.67,SW,216,0.0,0.0,71,0.00,,,0.15,,2013-05-12 00:12:00,
2013-05-11 20:21:00,74.0,65.0,29.68,SW,216,0.0,0.0,73,0.00,,,0.15,,2013-05-12 00:21:00,
2013-05-11 20:32:00,74.0,65.0,29.68,SW,216,0.0,0.0,73,0.00,,,0.15,,2013-05-12 00:32:00,
2013-05-11 20:42:00,73.0,63.0,29.68,NE,55,0.0,9.0,70,0.00,,,0.15,,2013-05-12 00:42:00,
2013-05-11 20:52:00,73.0,63.0,29.68,NE,55,0.0,9.0,70,0.00,,,0.15,,2013-05-12 00:52:00,
2013-05-11 21:01:00,69.0,60.0,29.69,NE,45,0.0,7.0,74,0.00,,,0.15,,2013-05-12 01:01:00,
2013-05-11 21:11:00,69.0,60.0,29.69,NE,45,0.0,7.0,74,0.00,,,0.15,,2013-05-12 01:11:00,
2013-05-11 21:21:00,69.0,60.0,29.69,NE,45,0.0,7.0,74,0.00,,,0.15,,2013-05-12 01:21:00,
2013-05-11 21:32:00,68.0,61.0,29.70,NE,44,0.0,0.0,77,0.00,,,0.15,,2013-05-12 01:32:00,
2013-05-11 21:42:00,67.0,60.0,29.70,NE,44,0.0,0.0,79,0.00,,,0.15,,2013-05-12 01:42:00,
2013-05-11 21:52:00,67.0,60.0,29.70,NE,44,0.0,0.0,79,0.00,,,0.15,,2013-05-12 01:52:00,
2013-05-11 22:01:00,67.0,60.0,29.70,NE,44,0.0,0.0,79,0.00,,,0.15,,2013-05-12 02:01:00,
2013-05-11 22:11:00,67.0,60.0,29.70,NE,44,0.0,0.0,79,0.00,,,0.15,,2013-05-12 02:11:00,
2013-05-11 22:22:00,67.0,61.0,29.71,NE,44,0.0,0.0,82,0.00,,,0.15,,2013-05-12 02:22:00,
2013-05-11 22:32:00,66.0,60.0,29.71,NE,44,0.0,0.0,82,0.00,,,0.15,,2013-05-12 02:32:00,
2013-05-11 22:42:00,66.0,60.0,29.71,NE,44,0.0,0.0,82,0.00,,,0.15,,2013-05-12 02:42:00,
2013-05-11 22:52:00,66.0,60.0,29.71,NE,44,0.0,0.0,82,0.00,,,0.15,,2013-05-12 02:52:00,
2013-05-11 23:01:00,66.0,61.0,29.71,WNW,301,0.0,0.0,83,0.00,,,0.15,,2013-05-12 03:01:00,
2013-05-11 23:11:00,66.0,61.0,29.71,WNW,301,0.0,0.0,83,0.00,,,0.15,,2013-05-12 03:11:00,
2013-05-11 23:22:00,66.0,61.0,29.71,WNW,301,0.0,0.0,83,0.00,,,0.15,,2013-05-12 03:22:00,
2013-05-11 23:33:00,66.0,60.0,29.71,NNW,337,0.0,0.0,80,0.00,,,0.15,,2013-05-12 03:33:00,
2013-05-11 23:43:00,66.0,60.0,29.71,NNW,337,0.0,0.0,80,0.00,,,0.15,,2013-05-12 03:43:00,
2013-05-11 23:53:00,66.0,59.0,29.70,NNW,337,0.0,0.0,79,0.00,,,0.15,,2013-05-12 03:53:00,